Weather History for Crestview, FL

Change the Weather History Date:

Sunday, November 11, 2012

  Actual Average Record
Temperature  
Mean Temperature 62 °F -  
Max Temperature 76 °F - - ()
Min Temperature 47 °F - - ()
Degree Days  
Heating Degree Days 4    
Growing Degree Days 12 (Base 50)    
Moisture  
Dew Point 52 °F    
Average Humidity 67    
Maximum Humidity 95    
Minimum Humidity 45    
Precipitation  
Precipitation 0.00 in - - ()
Sea Level Pressure  
Sea Level Pressure 30.26 in    
Wind  
Wind Speed 6 mph (ESE)    
Max Wind Speed 16 mph    
Max Gust Speed 23 mph    
Visibility 10 miles    
Events      
T = Trace of Precipitation, MM = Missing Value Source: NWS Daily Summary

Daily Weather History Graph

Daily Weather History Graph

Search for Another Location

Airport:

Trip Planner

Search our weather history database for the weather conditions in past years. The results will help you decide how hot, cold, wet, or windy it might be!

Date:

Astronomy

Nov. 11, 2012 Rise Set
Actual Time 6:09 AM CST 4:50 PM CST
Civil Twilight 5:44 AM CST 5:15 PM CST
Nautical Twilight 5:15 AM CST 5:44 PM CST
Astronomical Twilight 4:46 AM CST 6:13 PM CST
Moon 3:31 AM CST (11/11) 3:07 PM CST (11/11)
Length of Visible Light 11h 31m
Length of Day
10h 41m
Waning Crescent, 7% of the Moon is Illuminated
Nov 11
Waning Crescent
Nov 13
New
Nov 20
First Quarter
Nov 28
Full
Dec 6
Last Quarter

Hourly Weather History & Observations

Time (CST) Temp. Dew Point Humidity Pressure Visibility Wind Dir Wind Speed Gust Speed Precip Events Conditions
12:55 AM 47.5 °F 46.0 °F 95% 30.26 in 10.0 mi East 3.5 mph - N/A   Clear
1:55 AM 50.5 °F 45.9 °F 84% 30.26 in 10.0 mi Calm Calm - N/A   Clear
2:55 AM 49.3 °F 44.4 °F 83% 30.26 in 10.0 mi Calm Calm - N/A   Clear
3:55 AM 51.4 °F 44.1 °F 76% 30.25 in 10.0 mi East 8.1 mph - N/A   Clear
4:55 AM 52.9 °F 43.9 °F 71% 30.26 in 10.0 mi East 5.8 mph - N/A   Clear
5:55 AM 49.3 °F 43.0 °F 79% 30.29 in 10.0 mi Calm Calm - N/A   Mostly Cloudy
6:55 AM 53.6 °F 48.2 °F 82% 30.28 in 10.0 mi East 6.9 mph - N/A   Clear
7:55 AM 60.6 °F 52.7 °F 75% 30.29 in 10.0 mi East 8.1 mph - N/A   Scattered Clouds
8:55 AM 67.1 °F 54.7 °F 64% 30.31 in 10.0 mi East 9.2 mph - N/A   Clear
9:55 AM 69.6 °F 55.0 °F 60% 30.32 in 10.0 mi East 10.4 mph 18.4 mph N/A   Mostly Cloudy
10:55 AM 73.4 °F 55.6 °F 54% 30.29 in 10.0 mi East 16.1 mph - N/A   Partly Cloudy
11:55 AM 75.4 °F 54.3 °F 48% 30.27 in 10.0 mi SE 13.8 mph 23.0 mph N/A   Mostly Cloudy
12:55 PM 74.5 °F 54.9 °F 50% 30.25 in 10.0 mi SE 13.8 mph 20.7 mph N/A   Scattered Clouds
1:55 PM 76.1 °F 53.1 °F 45% 30.24 in 10.0 mi SSE 15.0 mph - N/A   Clear
2:55 PM 74.3 °F 53.2 °F 48% 30.24 in 10.0 mi SE 10.4 mph - N/A   Partly Cloudy
3:55 PM 73.4 °F 51.4 °F 46% 30.23 in 10.0 mi SE 9.2 mph 19.6 mph N/A   Clear
4:55 PM 69.6 °F 52.9 °F 55% 30.24 in 10.0 mi SE 8.1 mph - N/A   Clear
5:55 PM 66.9 °F 54.5 °F 64% 30.24 in 10.0 mi SSE 5.8 mph - N/A   Clear
6:55 PM 64.8 °F 56.5 °F 74% 30.23 in 10.0 mi SE 5.8 mph - N/A   Clear
7:55 PM 64.2 °F 56.7 °F 76% 30.24 in 10.0 mi ESE 3.5 mph - N/A   Clear
8:55 PM 61.7 °F 54.1 °F 76% 30.24 in 10.0 mi East 3.5 mph - N/A   Clear
9:55 PM 63.1 °F 53.4 °F 71% 30.24 in 10.0 mi ESE 4.6 mph - N/A   Clear
10:55 PM 63.7 °F 54.0 °F 71% 30.24 in 10.0 mi ESE 5.8 mph - N/A   Partly Cloudy
11:55 PM 63.9 °F 55.2 °F 73% 30.22 in 10.0 mi ESE 5.8 mph - N/A   Clear